Location: Sungai Bunut
(2.6333°N, 113.7333°E)
Time: 10:42:02
(UTC+00:00)

Transit 2A Rocket - Pass Details

Date: 03 December 2023
Orbit: 590 x 905 km, 66.7° (Epoch: 01 March)

Event Time Altitude Azimuth Distance (km) Brightness Sun altitude
Rises 23:38:31 0° 356° (N) 2,955 7.8 18.2°
Reaches altitude 10° 23:40:53 10° 6° (N) 2,091 7.1 18.7°
Maximum altitude 23:45:12 35° 71° (ENE) 1,149 6.9 19.7°
Drops below altitude 10° 23:49:53 10° 136° (SE) 2,283 9.0 20.8°
Sets 23:52:34 0° 144° (SE) 3,268 9.3 21.4°
